TimeCST,TemperatureF,Dew PointF,Humidity,Sea Level PressureIn,VisibilityMPH,Wind Direction,Wind SpeedMPH,Gust SpeedMPH,PrecipitationIn,Events,Conditions,WindDirDegrees,DateUTC
12:00 AM,66.2,60.8,83,30.33,6.2,North,11.5,-,N/A,,Scattered Clouds,360,2013-08-06 06:00:00
1:00 AM,64.4,60.8,88,30.30,6.2,North,16.1,-,N/A,,Mostly Cloudy,360,2013-08-06 07:00:00
2:00 AM,64.4,60.8,88,30.27,6.2,North,16.1,-,N/A,,Scattered Clouds,350,2013-08-06 08:00:00
3:00 AM,64.4,62.6,94,30.30,6.2,North,13.8,-,N/A,,Mostly Cloudy,360,2013-08-06 09:00:00
4:00 AM,64.4,62.6,94,30.27,6.2,North,13.8,-,N/A,,Mostly Cloudy,360,2013-08-06 10:00:00
5:00 AM,64.4,60.8,88,30.30,6.2,North,11.5,-,N/A,,Scattered Clouds,360,2013-08-06 11:00:00
6:00 AM,64,61,88,29.97,25,North,13.8,,,,Overcast,0,2013-08-06 12:00:00
6:00 AM,64.4,60.8,88,30.30,6.2,North,13.8,-,N/A,,Scattered Clouds,360,2013-08-06 12:00:00
7:00 AM,64.4,60.8,88,30.33,6.2,North,11.5,-,N/A,,Mostly Cloudy,360,2013-08-06 13:00:00
8:00 AM,68.0,59.0,73,30.33,6.2,North,13.8,-,N/A,,Scattered Clouds,360,2013-08-06 14:00:00
9:00 AM,69.8,60.8,73,30.33,6.2,North,13.8,-,N/A,,Scattered Clouds,360,2013-08-06 15:00:00
10:00 AM,71.6,59.0,64,30.33,6.2,North,11.5,-,N/A,,Scattered Clouds,360,2013-08-06 16:00:00
11:00 AM,73.4,59.0,61,30.36,6.2,North,13.8,-,N/A,,Scattered Clouds,360,2013-08-06 17:00:00
12:00 PM,76,59,45,29.97,25,North,13.8,,,,Scattered Clouds,0,2013-08-06 18:00:00
12:00 PM,77.0,59.0,54,30.33,6.2,North,13.8,-,N/A,,Partly Cloudy,360,2013-08-06 18:00:00
1:00 PM,77.0,59.0,54,30.30,6.2,North,6.9,-,N/A,,Scattered Clouds,360,2013-08-06 19:00:00
2:00 PM,78.8,57.2,47,30.27,6.2,Variable,3.5,-,N/A,,Partly Cloudy,0,2013-08-06 20:00:00
3:00 PM,77.0,59.0,54,30.27,6.2,NNE,11.5,-,N/A,,Scattered Clouds,30,2013-08-06 21:00:00
4:00 PM,77.0,57.2,50,30.24,6.2,NE,6.9,-,N/A,,Partly Cloudy,40,2013-08-06 22:00:00
5:00 PM,77.0,53.6,44,30.24,6.2,NNE,9.2,-,N/A,,Partly Cloudy,20,2013-08-06 23:00:00
6:00 PM,75.2,53.6,47,30.27,6.2,North,11.5,-,N/A,,Scattered Clouds,360,2013-08-07 00:00:00
7:00 PM,71.6,53.6,53,30.30,6.2,North,9.2,-,N/A,,Scattered Clouds,360,2013-08-07 01:00:00
8:00 PM,69.8,57.2,64,30.30,-9999.0,North,9.2,-,N/A,,Clear,360,2013-08-07 02:00:00
9:00 PM,68.0,59.0,73,30.33,-9999.0,North,13.8,-,N/A,,Clear,360,2013-08-07 03:00:00
10:00 PM,66.2,59.0,78,30.33,6.2,North,11.5,-,N/A,,Partly Cloudy,360,2013-08-07 04:00:00
11:00 PM,64.4,60.8,88,30.36,6.2,North,11.5,-,N/A,,Partly Cloudy,360,2013-08-07 05:00:00